Terminal Aerodrome Forecast
Issued by NWS Newport/Morehead City, NC

Home | Current Version | Previous Version | Text Only | Print | Product List | Glossary On
Versions: 1 2 3 4 5 6 7 8 9 10 11 12 13 14 15 16
814
FTUS42 KMHX 182334
TAFEWN
TAF
KEWN 182334Z 1900/1924 20009KT P6SM BKN040
     FM190300 21012G23KT P6SM SCT040
     FM190900 24014G26KT P6SM VCSH SCT020 BKN035
      TEMPO 1912/1914 5SM -RA BKN020
     FM191400 30014G25KT P6SM BKN090
     FM192100 31009KT P6SM SKC=

USA.gov is the U.S. government's official web portal to all federal, state and local government web resources and services.